EW4723 Weather Reports


time (UTC)temp
C
wind
direction
speed
KPH
gust
KPH
rain 1hr
cm
rain 24hr
cm
rain mn
cm
humidity
%
barometer
mb
20260506222644 13 107 1.6 4.8 0.00 0.03 0.03 79 1019.5
20260506221854 13 107 0.0 4.8 0.00 0.03 0.03 77 1019.6
20260506221351 13 121 1.6 4.8 0.00 0.03 0.03 79 1019.6
20260506220848 13 142 1.6 4.8 0.00 0.03 0.03 78 1019.6
20260506220349 13 128 1.6 4.8 0.00 0.03 0.03 80 1019.6
20260506215849 13 71 1.6 6.4 0.00 0.03 0.03 80 1019.7
20260506215348 13 340 1.6 6.4 0.00 0.03 0.03 79 1019.6
20260506214844 13 280 1.6 6.4 0.00 0.03 0.03 80 1019.6
20260506214345 13 165 1.6 8.0 0.00 0.03 0.03 80 1019.6
20260506213844 13 327 1.6 8.0 0.00 0.03 0.03 83 1019.6
20260506213342 13 338 1.6 6.4 0.00 0.03 0.03 80 1019.6
20260506212844 13 54 1.6 6.4 0.00 0.03 0.03 81 1019.7
20260506212342 13 338 0.0 6.4 0.00 0.03 0.03 81 1019.7
20260506211844 13 13 0.0 0.0 0.00 0.03 0.03 80 1019.7
20260506211342 13 289 0.0 4.8 0.00 0.03 0.03 81 1019.8
20260506210842 13 289 0.0 4.8 0.00 0.03 0.03 85 1019.7
20260506210342 12 189 1.6 6.4 0.00 0.03 0.03 83 1019.6
20260506205838 12 252 1.6 6.4 0.00 0.03 0.03 83 1019.6
20260506205337 12 93 1.6 8.0 0.00 0.03 0.03 82 1019.6
20260506204836 12 302 1.6 9.7 0.00 0.03 0.03 82 1019.6
20260506204338 12 315 1.6 9.7 0.00 0.03 0.03 83 1019.7
20260506203837 12 327 1.6 4.8 0.00 0.03 0.03 85 1019.6
20260506203335 12 59 1.6 6.4 0.00 0.03 0.03 86 1019.7
20260506202834 12 293 0.0 6.4 0.00 0.03 0.03 86 1019.7
20260506202328 11 29 0.0 3.2 0.00 0.03 0.03 87 1019.7
20260506201823 11 30 1.6 11.3 0.00 0.03 0.03 89 1019.7
20260506201600 11 31 1.6 11.3 0.00 0.03 0.03 88 1019.7
20260506200811 11 304 1.6 6.4 0.00 0.03 0.03 88 1019.7
20260506200305 11 13 1.6 8.0 0.00 0.03 0.03 88 1019.6
20260506200047 11 347 1.6 8.0 0.00 0.03 0.03 88 1019.6
20260506195253 11 10 1.6 11.3 0.00 0.03 0.03 91 1019.6
20260506194746 11 55 0.0 11.3 0.00 0.03 0.03 89 1019.6
20260506194240 11 169 0.0 6.4 0.00 0.03 0.03 90 1019.6
20260506193734 11 0 1.6 11.3 0.00 0.03 0.03 91 1019.5
20260506193228 11 302 1.6 11.3 0.00 0.03 0.03 90 1019.5
20260506192722 11 298 3.2 12.9 0.00 0.03 0.03 90 1019.5
20260506192217 11 335 1.6 12.9 0.00 0.03 0.03 89 1019.5
20260506191711 11 184 0.0 8.0 0.00 0.03 0.03 91 1019.5
20260506191205 11 296 0.0 6.4 0.00 0.03 0.03 92 1019.4
20260506190700 11 302 1.6 6.4 0.00 0.03 0.03 91 1019.4
20260506190153 11 289 1.6 4.8 0.00 0.03 0.03 92 1019.3
20260506185647 11 307 1.6 8.0 0.00 0.03 0.03 93 1019.2
20260506185140 11 223 1.6 8.0 0.00 0.03 0.03 94 1019.3
20260506184634 10 328 1.6 4.8 0.00 0.03 0.03 93 1019.3
20260506184128 10 48 0.0 8.0 0.00 0.03 0.03 94 1019.3
20260506183622 10 350 0.0 8.0 0.00 0.03 0.03 95 1019.2
20260506183116 10 325 0.0 4.8 0.00 0.03 0.03 94 1019.2
20260506182610 10 0 0.0 4.8 0.00 0.03 0.03 94 1019.1
20260506182105 10 348 1.6 4.8 0.00 0.03 0.03 94 1019.2
20260506181558 10 336 1.6 4.8 0.00 0.03 0.03 94 1019.2
20260506181053 10 292 0.0 8.0 0.00 0.03 0.03 94 1019.2
20260506180547 10 280 0.0 8.0 0.00 0.03 0.03 94 1019.3
20260506180046 10 11 1.6 6.4 0.00 0.03 0.03 94 1019.2
20260506175546 10 346 1.6 6.4 0.00 0.03 0.03 94 1019.2
20260506175046 10 339 0.0 6.4 0.00 0.03 0.03 95 1019.1
20260506174546 10 350 0.0 4.8 0.00 0.03 0.03 95 1019.1
20260506174045 10 265 0.0 4.8 0.00 0.03 0.03 95 1019.0
20260506173543 10 270 0.0 3.2 0.00 0.03 0.03 95 1018.9
20260506173041 10 345 0.0 6.4 0.03 0.03 0.03 96 1019.0
20260506172544 10 292 1.6 6.4 0.03 0.03 0.03 95 1018.9
20260506172331 10 244 1.6 6.4 0.03 0.03 0.03 96 1018.9
20260506171538 10 54 1.6 6.4 0.03 0.03 0.03 95 1018.8
20260506171039 10 340 1.6 4.8 0.03 0.03 0.03 96 1018.8
20260506170539 10 307 0.0 9.7 0.03 0.03 0.03 96 1018.8
20260506170037 10 0 0.0 9.7 0.03 0.03 0.03 96 1018.6
20260506165537 10 26 0.0 3.2 0.03 0.03 0.03 96 1018.4
20260506165330 10 121 0.0 3.2 0.03 0.03 0.03 96 1018.5
20260506164535 10 117 0.0 3.2 0.03 0.03 0.03 96 1018.6
20260506164035 10 257 0.0 4.8 0.03 0.03 0.03 96 1018.7
20260506163530 10 201 0.0 4.8 0.00 0.00 0.00 96 1018.8
20260506163032 10 106 0.0 0.0 0.00 0.00 0.00 96 1018.8
20260506162528 10 346 0.0 0.0 0.00 0.00 0.00 96 1018.7
20260506162028 10 300 0.0 0.0 0.00 0.00 0.00 96 1018.7
20260506161527 10 296 0.0 0.0 0.00 0.00 0.00 96 1018.7
20260506161035 10 335 0.0 0.0 0.00 0.00 0.00 96 1018.8
20260506160522 10 299 0.0 0.0 0.00 0.00 0.00 96 1018.9
20260506160023 10 303 0.0 0.0 0.00 0.00 0.00 96 1018.9
20260506155521 10 317 0.0 0.0 0.00 0.00 0.00 96 1018.8
20260506155020 10 317 0.0 0.0 0.00 0.00 0.00 96 1018.8
20260506154519 10 317 0.0 0.0 0.00 0.00 0.00 96 1018.8
20260506154020 10 281 0.0 3.2 0.00 0.00 0.00 96 1018.7
20260506153521 10 280 0.0 4.8 0.00 0.00 0.00 96 1018.7
20260506153019 10 279 0.0 4.8 0.00 0.00 0.00 96 1018.7
20260506152520 10 277 0.0 3.2 0.00 0.00 0.00 96 1018.6
20260506152021 10 277 0.0 4.8 0.00 0.00 0.00 96 1018.4
20260506151520 10 278 0.0 4.8 0.00 0.00 0.00 96 1018.2
20260506151021 10 219 0.0 0.0 0.00 0.00 0.00 96 1018.2
20260506150806 10 219 0.0 0.0 0.00 0.00 0.00 96 1018.1
20260506150021 10 219 0.0 0.0 0.00 0.00 0.00 96 1018.1
20260506145805 10 219 0.0 0.0 0.00 0.00 0.00 96 1018.0
20260506145017 10 169 0.0 6.4 0.00 0.00 0.00 96 1017.9
20260506144516 10 169 0.0 6.4 0.00 0.00 0.00 96 1017.9
20260506144016 10 342 0.0 0.0 0.00 0.00 0.00 96 1017.8
20260506143514 10 342 0.0 0.0 0.00 0.00 0.00 96 1018.0
20260506143013 10 342 0.0 0.0 0.00 0.00 0.00 96 1018.2
20260506142802 10 342 0.0 0.0 0.00 0.00 0.00 96 1018.1
20260506142013 10 342 0.0 0.0 0.00 0.00 0.00 96 1018.1
20260506141513 10 342 0.0 0.0 0.00 0.00 0.00 96 1018.1
20260506141011 10 342 0.0 0.0 0.00 0.00 0.00 96 1018.1
20260506140507 10 342 0.0 0.0 0.00 0.00 0.00 96 1018.1
20260506140008 10 342 0.0 0.0 0.00 0.00 0.00 96 1017.8
20260506135758 10 342 0.0 0.0 0.00 0.00 0.00 96 1017.7
20260506135000 10 342 0.0 0.0 0.00 0.00 0.00 96 1017.7
20260506134501 10 342 0.0 0.0 0.00 0.00 0.00 96 1017.8
20260506134001 10 342 0.0 0.0 0.00 0.00 0.00 96 1017.7
20260506133459 10 342 0.0 0.0 0.00 0.00 0.00 96 1017.7
20260506133251 10 342 0.0 0.0 0.00 0.00 0.00 96 1017.6
20260506132500 10 342 0.0 0.0 0.00 0.00 0.00 96 1017.6
20260506131957 10 342 0.0 0.0 0.00 0.00 0.00 95 1017.6
20260506131457 10 342 0.0 0.0 0.00 0.00 0.00 95 1017.6
20260506130959 10 342 0.0 0.0 0.00 0.00 0.00 95 1017.7
20260506130457 10 342 0.0 0.0 0.00 0.00 0.00 95 1017.7
20260506125953 10 342 0.0 0.0 0.00 0.00 0.00 95 1017.6
20260506125452 10 342 0.0 0.0 0.00 0.00 0.00 95 1017.6
20260506124949 10 342 0.0 3.2 0.00 0.00 0.00 95 1017.7
20260506124737 10 338 0.0 3.2 0.00 0.00 0.00 95 1017.7
20260506123945 10 327 0.0 4.8 0.00 0.00 0.00 95 1017.5
20260506123447 10 326 0.0 4.8 0.00 0.00 0.00 95 1017.8
20260506122947 10 5 0.0 0.0 0.00 0.00 0.00 95 1017.8
20260506122445 10 5 0.0 3.2 0.00 0.00 0.00 95 1017.7
20260506121943 10 5 0.0 3.2 0.00 0.00 0.00 94 1017.6
20260506121439 10 5 0.0 0.0 0.00 0.00 0.00 94 1017.6
20260506121232 10 5 0.0 0.0 0.00 0.00 0.00 94 1017.5
20260506120434 10 5 0.0 0.0 0.00 0.00 0.00 94 1017.6
20260506115928 10 5 0.0 3.2 0.00 0.00 0.00 94 1017.6
20260506115422 10 248 0.0 6.4 0.00 0.00 0.00 93 1017.4
20260506114916 10 236 0.0 6.4 0.00 0.00 0.00 93 1017.3
20260506114411 10 284 0.0 4.8 0.00 0.00 0.00 93 1017.5
20260506113904 10 183 0.0 3.2 0.00 0.00 0.00 93 1017.5
20260506113358 10 325 0.0 4.8 0.00 0.00 0.00 93 1017.4
20260506112852 10 325 0.0 4.8 0.00 0.00 0.00 92 1017.3
20260506112632 10 109 0.0 6.4 0.00 0.00 0.00 92 1017.2
20260506111840 10 355 0.0 6.4 0.00 0.00 0.00 92 1017.2
20260506111334 10 9 0.0 3.2 0.00 0.00 0.00 92 1017.2
20260506110828 10 313 0.0 3.2 0.00 0.00 0.00 92 1017.0
20260506110322 10 303 0.0 0.0 0.00 0.00 0.00 92 1017.0
20260506110104 10 303 0.0 0.0 0.00 0.00 0.00 92 1017.0
20260506105309 10 303 0.0 0.0 0.00 0.00 0.00 92 1016.9
20260506104804 10 303 0.0 0.0 0.00 0.00 0.00 92 1016.8
20260506104258 10 303 0.0 0.0 0.00 0.00 0.00 92 1016.6
20260506103751 10 303 0.0 0.0 0.00 0.00 0.00 91 1016.6
20260506103246 10 303 0.0 0.0 0.00 0.00 0.00 92 1016.5
20260506102740 10 303 0.0 0.0 0.00 0.00 0.00 92 1016.4
20260506102234 10 303 0.0 0.0 0.00 0.00 0.00 92 1016.4
20260506101728 10 303 0.0 0.0 0.00 0.00 0.00 92 1016.4
20260506101222 10 303 0.0 4.8 0.00 0.00 0.00 91 1016.3
20260506100716 10 302 0.0 4.8 0.00 0.00 0.00 91 1016.4
20260506100210 10 303 0.0 1.6 0.00 0.00 0.00 92 1016.3
20260506095705 10 303 0.0 4.8 0.00 0.00 0.00 92 1016.3
20260506095158 10 323 1.6 4.8 0.00 0.00 0.00 92 1016.3
20260506094652 10 294 0.0 4.8 0.00 0.00 0.00 92 1016.3
20260506094147 10 22 0.0 3.2 0.00 0.00 0.00 92 1016.4
20260506093647 10 341 0.0 0.0 0.00 0.00 0.00 93 1016.3
20260506093148 10 351 0.0 1.6 0.00 0.00 0.00 93 1016.3
20260506092647 10 351 0.0 4.8 0.00 0.00 0.00 93 1016.3
20260506092145 10 350 1.6 6.4 0.00 0.00 0.00 93 1016.2
20260506091644 10 327 0.0 6.4 0.00 0.00 0.00 93 1016.2
20260506091143 10 26 0.0 3.2 0.00 0.00 0.00 93 1016.3
20260506090644 10 50 0.0 4.8 0.00 0.00 0.00 93 1016.3
20260506090144 10 298 0.0 6.4 0.00 0.00 0.00 94 1016.2
20260506085927 10 302 0.0 6.4 0.00 0.00 0.00 94 1016.2
20260506085144 10 336 0.0 4.8 0.00 0.00 0.00 95 1016.2
20260506084930 9 245 0.0 4.8 0.00 0.00 0.00 95 1016.2
20260506084431 9 22 0.0 4.8 0.00 0.00 0.00 94 1016.1
20260506083639 9 23 0.0 4.8 0.00 0.00 0.00 95 1016.1
20260506083140 9 355 0.0 4.8 0.00 0.00 0.00 95 1016.1
20260506082636 9 350 0.0 4.8 0.00 0.00 0.00 95 1016.1
20260506082135 8 313 0.0 4.8 0.00 0.00 0.00 95 1016.1
20260506081636 9 269 0.0 4.8 0.00 0.00 0.00 95 1016.0
20260506081135 8 5 0.0 4.8 0.00 0.00 0.00 95 1015.9
20260506080635 8 5 0.0 4.8 0.00 0.00 0.00 95 1015.8
20260506080135 8 83 0.0 3.2 0.00 0.00 0.00 94 1015.8
20260506073132 8 338 0.0 1.6 0.00 0.00 0.00 94 1015.5
20260506072632 8 319 0.0 3.2 0.00 0.00 0.00 94 1015.4
20260506072132 8 319 0.0 3.2 0.00 0.00 0.00 94 1015.4
20260506071921 8 324 0.0 0.0 0.00 0.00 0.00 93 1015.4
20260506071131 9 331 0.0 0.0 0.00 0.00 0.00 93 1015.3
20260506070631 9 331 0.0 3.2 0.00 0.00 0.00 93 1015.3
20260506070132 9 331 0.0 4.8 0.00 0.00 0.00 93 1015.4
20260506062122 10 315 1.6 8.0 0.00 0.00 0.00 92 1015.1
20260506061912 10 5 1.6 9.7 0.00 0.00 0.00 92 1015.1
20260506061121 10 345 1.6 12.9 0.00 0.00 0.00 92 1015.0
20260506060624 10 292 1.6 12.9 0.00 0.00 0.00 92 1015.1
20260506060121 10 324 1.6 8.0 0.00 0.00 0.00 92 1015.2
20260506051122 10 11 3.2 9.7 0.00 0.00 0.00 91 1015.1
20260506050623 10 243 1.6 4.8 0.00 0.00 0.00 91 1015.0
20260506050121 10 17 1.6 6.4 0.00 0.00 0.00 91 1015.1
20260506045121 10 344 1.6 11.3 0.00 0.00 0.00 91 1014.9
20260506044621 10 355 1.6 8.0 0.00 0.00 0.00 91 1014.9
20260506044120 10 25 1.6 8.0 0.00 0.00 0.00 91 1014.8
20260506043912 10 296 1.6 8.0 0.00 0.00 0.00 91 1014.8
20260506043116 10 294 1.6 8.0 0.00 0.00 0.00 91 1014.6
20260506042712 10 355 1.6 4.8 0.00 0.00 0.00 91 1014.5
20260506042654 10 338 1.6 8.0 0.00 0.00 0.00 91 1014.6
20260506041612 10 15 0.0 4.8 0.00 0.00 0.00 92 1014.5
20260506041357 10 304 0.0 0.0 0.00 0.00 0.00 92 1014.4
20260506040559 10 299 0.0 0.0 0.00 0.00 0.00 91 1014.3
20260506040053 10 299 0.0 0.0 0.00 0.00 0.00 91 1014.2
20260506035548 10 299 0.0 0.0 0.00 0.00 0.00 91 1014.1
20260506035335 10 299 0.0 0.0 0.00 0.00 0.00 91 1014.0
20260506034536 10 299 0.0 0.0 0.00 0.00 0.00 91 1014.1
20260506034317 10 299 0.0 0.0 0.00 0.00 0.00 91 1014.0
20260506033748 10 319 0.0 0.0 0.00 0.00 0.00 90 1014.0
20260506033017 10 319 0.0 0.0 0.00 0.00 0.00 90 1013.9
20260506032511 10 319 0.0 0.0 0.00 0.00 0.00 90 1013.8
20260506032252 11 319 0.0 0.0 0.00 0.00 0.00 89 1013.9
20260506031459 11 320 0.0 0.0 0.00 0.00 0.00 88 1014.0
20260506030954 11 320 0.0 0.0 0.00 0.00 0.00 88 1014.0
20260506030448 11 320 0.0 0.0 0.00 0.00 0.00 87 1014.0
20260506030230 11 320 0.0 1.6 0.00 0.00 0.00 87 1013.9
20260506025436 11 313 0.0 3.2 0.00 0.00 0.00 87 1014.0
20260506024931 11 341 1.6 8.0 0.00 0.00 0.00 87 1014.0
20260506024423 11 340 0.0 8.0 0.00 0.00 0.00 86 1014.0
20260506023953 11 247 1.6 8.0 0.00 0.00 0.00 86 1013.9
20260506023940 11 11 1.6 8.0 0.00 0.00 0.00 86 1014.0
20260506022905 11 227 0.0 4.8 0.00 0.00 0.00 86 1013.9
20260506022400 11 346 1.6 4.8 0.00 0.00 0.00 85 1014.0
20260506021854 12 332 1.6 8.0 0.00 0.00 0.00 85 1014.0
20260506021347 12 15 1.6 8.0 0.00 0.00 0.00 85 1014.0
20260506021144 12 336 1.6 9.7 0.00 0.00 0.00 85 1014.0
20260506020336 12 330 1.6 9.7 0.00 0.00 0.00 84 1014.0
20260506015829 12 28 1.6 8.0 0.00 0.00 0.00 84 1014.0
20260506015610 12 5 1.6 8.0 0.00 0.00 0.00 84 1014.0
20260506014820 12 269 1.6 6.4 0.00 0.00 0.00 83 1014.0
20260506014614 12 290 1.6 6.4 0.00 0.00 0.00 83 1014.1
20260506013805 12 250 1.6 8.0 0.00 0.00 0.00 83 1014.1
20260506013301 12 284 1.6 8.0 0.00 0.00 0.00 81 1014.1
20260506012754 13 44 1.6 6.4 0.00 0.00 0.00 82 1014.2
20260506012248 13 231 1.6 6.4 0.00 0.00 0.00 81 1014.1
20260506012046 13 246 1.6 4.8 0.00 0.00 0.00 81 1014.1
20260506011531 13 313 1.6 12.9 0.00 0.00 0.00 81 1014.1
20260506010745 13 264 3.2 12.9 0.00 0.00 0.00 81 1014.2
20260506010242 13 5 1.6 12.9 0.00 0.00 0.00 80 1014.2
20260506005743 13 331 1.6 9.7 0.00 0.00 0.00 80 1014.2
20260506005244 13 319 3.2 14.5 0.00 0.00 0.00 79 1014.2
20260506004826 13 321 3.2 8.0 0.00 0.00 0.00 78 1014.2
20260506004812 13 5 3.2 14.5 0.00 0.00 0.00 80 1014.2
20260506003738 13 223 3.2 8.0 0.00 0.00 0.00 78 1014.2
20260506003237 14 265 3.2 6.4 0.00 0.00 0.00 77 1014.3
20260506002735 14 300 1.6 6.4 0.00 0.00 0.00 77 1014.3
20260506002238 15 279 3.2 9.7 0.00 0.00 0.00 76 1014.2
20260506002024 15 335 1.6 9.7 0.00 0.00 0.00 76 1014.3
20260506001232 15 297 1.6 6.4 0.00 0.00 0.00 76 1014.2
20260506000732 15 278 1.6 6.4 0.00 0.00 0.00 75 1014.3
20260506000519 15 249 1.6 9.7 0.00 0.00 0.00 75 1014.3
20260506000029 15 341 1.6 9.7 0.00 0.00 0.00 75 1014.3
20260505235230 15 355 1.6 8.0 0.00 0.00 0.00 76 1014.4
20260505234730 15 302 3.2 12.9 0.00 0.00 0.00 77 1014.4
20260505234513 14 5 1.6 12.9 0.00 0.00 0.00 78 1014.5
20260505233717 15 346 1.6 8.0 0.00 0.00 0.00 77 1014.5
20260505233216 15 290 3.2 9.7 0.00 0.00 0.00 79 1014.6
20260505232717 15 281 3.2 9.7 0.00 0.00 0.00 77 1014.6
20260505232218 15 287 3.2 12.9 0.00 0.00 0.00 78 1014.6
20260505231715 15 340 3.2 12.9 0.00 0.00 0.00 78 1014.7
20260505231214 14 350 3.2 8.0 0.00 0.00 0.00 78 1014.6
20260505230715 15 341 1.6 8.0 0.00 0.00 0.00 80 1014.6
20260505230212 15 329 1.6 6.4 0.00 0.00 0.00 77 1014.7
20260505225713 15 11 1.6 6.4 0.00 0.00 0.00 78 1014.7
20260505225214 15 324 1.6 6.4 0.00 0.00 0.00 79 1014.8
20260505224711 15 317 1.6 11.3 0.00 0.00 0.00 78 1014.9
20260505224212 14 302 3.2 11.3 0.00 0.00 0.00 80 1014.9
20260505223710 14 265 3.2 9.7 0.00 0.00 0.00 79 1014.9
20260505223210 14 300 3.2 9.7 0.00 0.00 0.00 80 1014.9